Location: Berkeley
(37.8716°N, 122.2727°W)
Time: 20:43:14
(UTC-07:00)

Envisat - Pass Details

Date: 16 May 2026
Orbit: 761 x 763 km, 98.4° (Epoch: 9 June)

Event Time Altitude Azimuth Distance (km) Brightness Sun altitude
Rises 04:37:10 0° 0° (N) 3,230 6.8 -14.4°
Reaches altitude 10° 04:39:44 10° 350° (N) 2,300 5.8 -14.0°
Maximum altitude 04:44:01 28° 292° (WNW) 1,389 4.1 -13.3°
Enters shadow 04:46:47 18° 246° (WSW) 1,823 4.3 -12.9°
